Ogden, KS

7:46 PM CDT on August 30, 2016 (GMT -0500)
Manhattan Regional

Weather History for KMHK - October, 2012

Change the Weather History Date:

Monday, October 29, 2012

  Actual Average Record
Temperature  
Mean Temperature 54 °F 50 °F  
Max Temperature 68 °F 63 °F 82 °F (2004)
Min Temperature 39 °F 37 °F 28 °F (1997)
Degree Days  
Heating Degree Days 11 15  
Month to date heating degree days 305 297  
Since 1 July heating degree days 387 367  
Cooling Degree Days 0 0  
Month to date cooling degree days 21 21  
Year to date cooling degree days 1785 1358  
Growing Degree Days 6 (Base 50)    
Moisture  
Dew Point 30 °F    
Average Humidity 44    
Maximum Humidity 62    
Minimum Humidity 26    
Precipitation  
Precipitation 0.00 in 0.06 in 0.36 in (1996)
Month to date precipitation 0.51 2.10  
Year to date precipitation 20.72 29.81  
Sea Level Pressure  
Sea Level Pressure 30.15 in    
Wind  
Wind Speed 7 mph (South)    
Max Wind Speed 21 mph    
Max Gust Speed 31 mph    
Visibility 10 miles    
Events      
T = Trace of Precipitation, MM = Missing Value Source: NWS Daily Summary

Daily Weather History Graph

Daily Weather History Graph

Search for Another Location

Airport or City:

Trip Planner

Search our weather history database for the weather conditions in past years. The results will help you decide how hot, cold, wet, or windy it might be!

Date:

Astronomy

Oct. 29, 2012 Rise Set
Actual Time 7:51 AM CDT 6:28 PM CDT
Civil Twilight 7:23 AM CDT 6:56 PM CDT
Nautical Twilight 6:52 AM CDT 7:27 PM CDT
Astronomical Twilight 6:21 AM CDT 7:58 PM CDT
Moon 6:21 PM CDT (10/29) 7:42 AM CDT (10/29)
Length of Visible Light 11h 32m
Length of Day
10h 37m
Full, 100% of the Moon is Illuminated
Oct 29
Full
Oct 29
Full
Nov 6
Last Quarter
Nov 13
New
Nov 20
First Quarter

Hourly Weather History & Observations

Time (CDT) Temp. Windchill Dew Point Humidity Pressure Visibility Wind Dir Wind Speed Gust Speed Precip Events Conditions
12:52 AM 48.9 °F - 28.0 °F 44% 30.23 in 10.0 mi SSE 6.9 mph - N/A   Mostly Cloudy
1:52 AM 48.0 °F - 28.9 °F 48% 30.23 in 10.0 mi South 5.8 mph - N/A   Overcast
2:52 AM 46.9 °F - 28.9 °F 50% 30.25 in 10.0 mi Calm Calm - N/A   Overcast
3:52 AM 46.9 °F - 30.0 °F 52% 30.24 in 10.0 mi SSE 5.8 mph - N/A   Mostly Cloudy
5:52 AM 46.9 °F - 28.9 °F 50% 30.24 in 10.0 mi SSE 4.6 mph - N/A   Partly Cloudy
6:52 AM 46.0 °F 41.9 °F 30.0 °F 54% 30.23 in 10.0 mi South 8.1 mph - N/A   Partly Cloudy
7:52 AM 45.0 °F 41.8 °F 30.0 °F 56% 30.23 in 10.0 mi South 5.8 mph - N/A   Mostly Cloudy
8:52 AM 46.0 °F 41.9 °F 30.0 °F 54% 30.24 in 10.0 mi South 8.1 mph - N/A   Scattered Clouds
9:52 AM 48.9 °F - 30.0 °F 48% 30.23 in 10.0 mi South 12.7 mph - N/A   Partly Cloudy
10:52 AM 53.1 °F - 30.0 °F 41% 30.22 in 10.0 mi South 15.0 mph 21.9 mph N/A   Partly Cloudy
11:52 AM 57.9 °F - 28.9 °F 33% 30.20 in 10.0 mi South 16.1 mph 26.5 mph N/A   Clear
12:52 PM 62.1 °F - 30.0 °F 30% 30.16 in 10.0 mi SSW 18.4 mph 31.1 mph N/A   Clear
1:52 PM 64.9 °F - 30.0 °F 27% 30.12 in 10.0 mi SSW 15.0 mph 24.2 mph N/A   Clear
2:52 PM 66.0 °F - 30.0 °F 26% 30.10 in 10.0 mi SW 13.8 mph - N/A   Clear
3:52 PM 66.9 °F - 30.0 °F 25% 30.08 in 10.0 mi SSW 13.8 mph - N/A   Clear
4:52 PM 66.2 °F - 30.2 °F 26% 30.07 in 10.0 mi South 8.1 mph - N/A   Clear
5:52 PM 63.0 °F - 32.0 °F 31% 30.06 in 10.0 mi South 5.8 mph - N/A   Clear
6:52 PM 57.0 °F - 32.0 °F 39% 30.07 in 10.0 mi Calm Calm - N/A   Clear
7:52 PM 53.1 °F - 32.0 °F 45% 30.07 in 10.0 mi Calm Calm - N/A   Clear
8:52 PM 52.0 °F - 32.0 °F 47% 30.07 in 10.0 mi SW 3.5 mph - N/A   Clear
9:52 PM 51.1 °F - 32.0 °F 48% 30.07 in 10.0 mi South 4.6 mph - N/A   Clear
10:52 PM 46.0 °F - 30.9 °F 56% 30.08 in 10.0 mi Calm Calm - N/A   Clear
11:52 PM 43.0 °F - 30.9 °F 62% 30.07 in 10.0 mi Calm Calm - N/A   Clear